DW7214 Weather Reports


Display with metric or nautical units.
time (UTC)temp
F
wind
direction
speed
MPH
gust
MPH
rain 1hr
in
rain 24hr
in
rain mn
in
humidity
%
barometer
mb
20260510191528 63 315 0.0 2.0 0.00 0.00 0.00 69 1020.6
20260510190023 62 335 1.0 3.0 0.00 0.00 0.00 73 1020.5
20260510184519 62 184 1.0 3.0 0.00 0.00 0.00 72 1020.7
20260510183038 63 167 1.0 6.0 0.00 0.00 0.00 71 1020.4
20260510181529 64 163 1.0 4.0 0.00 0.00 0.00 70 1020.2
20260510180025 63 185 1.0 3.0 0.00 0.00 0.00 71 1020.2
20260510174517 62 122 1.0 2.0 0.00 0.00 0.00 72 1020.1
20260510173021 62 45 1.0 4.0 0.00 0.00 0.00 76 1020.1
20260510171522 61 44 2.0 4.0 0.00 0.00 0.00 76 1020.3
20260510170026 60 89 0.0 3.0 0.00 0.00 0.00 75 1020.2
20260510164527 60 47 1.0 2.0 0.00 0.00 0.00 76 1020.0
20260510163017 59 50 1.0 3.0 0.00 0.00 0.00 78 1019.8
20260510161523 59 69 0.0 2.0 0.00 0.00 0.00 78 1020.0
20260510160030 58 188 0.0 2.0 0.00 0.00 0.00 80 1020.0
20260510154528 56 179 0.0 2.0 0.00 0.00 0.00 84 1019.8
20260510153025 55 76 0.0 2.0 0.00 0.00 0.00 87 1019.8
20260510151521 53 5 0.0 2.0 0.00 0.00 0.00 89 1019.8
20260510150007 52 314 0.0 2.0 0.00 0.00 0.00 91 1019.5
20260510144524 51 308 0.0 2.0 0.00 0.00 0.00 91 1019.4
20260510143010 51 304 0.0 2.0 0.00 0.00 0.00 92 1019.3
20260510141513 50 238 0.0 2.0 0.00 0.00 0.00 94 1019.1
20260510140006 49 218 1.0 2.0 0.00 0.00 0.00 94 1019.1
20260510134512 48 223 0.0 2.0 0.00 0.00 0.00 94 1018.7
20260510133028 48 249 0.0 2.0 0.00 0.00 0.00 94 1018.8
20260510131514 47 248 0.0 2.0 0.00 0.00 0.00 93 1018.7
20260510130016 47 252 0.0 2.0 0.00 0.00 0.00 93 1018.3
20260510124510 47 302 0.0 2.0 0.00 0.00 0.00 93 1018.5
20260510123014 47 338 0.0 2.0 0.00 0.00 0.00 93 1018.2
20260510121516 47 243 0.0 0.0 0.00 0.00 0.00 93 1018.5
20260510120022 47 243 0.0 2.0 0.00 0.00 0.00 93 1018.3
20260510114522 47 226 0.0 2.0 0.00 0.00 0.00 93 1018.2
20260510113011 47 240 0.0 2.0 0.00 0.00 0.00 92 1018.1
20260510111516 47 240 0.0 2.0 0.00 0.00 0.00 92 1018.0
20260510110017 47 240 0.0 2.0 0.00 0.00 0.00 92 1018.0
20260510104517 47 250 0.0 2.0 0.00 0.00 0.00 92 1017.8
20260510103017 47 250 0.0 2.0 0.00 0.00 0.00 91 1017.6
20260510101515 48 250 0.0 0.0 0.00 0.00 0.00 91 1017.6
20260510100016 48 250 0.0 2.0 0.00 0.00 0.00 91 1017.4
20260510094519 48 254 1.0 2.0 0.00 0.00 0.00 90 1017.4
20260510093020 49 164 0.0 0.0 0.00 0.00 0.00 90 1016.9
20260510091513 50 164 0.0 1.0 0.00 0.00 0.00 89 1017.1
20260510090018 51 164 0.0 2.0 0.00 0.00 0.00 90 1017.2
20260510084519 51 94 0.0 2.0 0.00 0.00 0.00 90 1017.2
20260510083022 51 208 0.0 2.0 0.00 0.00 0.00 88 1017.1
20260510081520 52 208 0.0 2.0 0.00 0.00 0.00 87 1016.8
20260510080014 53 200 0.0 2.0 0.00 0.00 0.00 87 1017.0
20260510074521 53 118 1.0 3.0 0.00 0.00 0.00 88 1017.0
20260510073031 53 138 0.0 2.0 0.00 0.00 0.00 87 1016.8
20260510071506 54 54 0.0 2.0 0.00 0.00 0.00 85 1016.7
20260510070011 55 70 0.0 2.0 0.00 0.00 0.00 84 1016.7
20260510064516 56 110 0.0 3.0 0.00 0.00 0.00 83 1016.7
20260510063032 56 120 0.0 2.0 0.00 0.00 0.00 82 1016.6
20260510061523 56 123 1.0 2.0 0.00 0.00 0.00 83 1016.6
20260510060018 56 132 0.0 2.0 0.00 0.00 0.00 79 1016.5
20260510054514 57 120 0.0 2.0 0.00 0.00 0.00 78 1016.5
20260510053018 58 120 0.0 2.0 0.00 0.00 0.00 74 1016.5
20260510051527 59 120 0.0 2.0 0.00 0.00 0.00 77 1016.5
20260510050024 58 109 0.0 2.0 0.00 0.00 0.00 77 1016.3
20260510044515 59 236 0.0 2.0 0.00 0.00 0.00 73 1016.3
20260510043020 60 246 0.0 2.0 0.00 0.00 0.00 71 1016.3
20260510041524 61 50 0.0 2.0 0.00 0.00 0.00 69 1016.2
20260510040005 62 169 0.0 2.0 0.00 0.00 0.00 66 1015.9
20260510034509 64 214 0.0 2.0 0.00 0.00 0.00 65 1015.4
20260510033017 66 214 0.0 2.0 0.00 0.00 0.00 61 1015.3
20260510031520 68 214 0.0 2.0 0.00 0.00 0.00 59 1015.2
20260510030008 71 198 0.0 2.0 0.00 0.00 0.00 51 1015.2
20260510024507 73 146 0.0 2.0 0.00 0.00 0.00 48 1015.1
20260510023012 75 146 0.0 2.0 0.00 0.00 0.00 43 1015.0
20260510021531 76 144 0.0 2.0 0.00 0.00 0.00 43 1015.1
20260510020022 77 219 0.0 2.0 0.00 0.00 0.00 45 1015.1
20260510014507 78 225 0.0 2.0 0.00 0.00 0.00 39 1015.1
20260510013009 79 283 0.0 2.0 0.00 0.00 0.00 32 1015.3
20260510011516 78 289 1.0 3.0 0.00 0.00 0.00 30 1015.5
20260510010021 79 281 1.0 2.0 0.00 0.00 0.00 26 1015.5
20260510004522 78 242 0.0 2.0 0.00 0.00 0.00 27 1015.6
20260510003010 77 15 0.0 5.0 0.00 0.00 0.00 30 1015.5
20260510001513 78 246 2.0 3.0 0.00 0.00 0.00 30 1015.8
20260510000020 78 342 2.0 4.0 0.00 0.00 0.00 29 1015.9
20260509234529 78 9 0.0 4.0 0.00 0.00 0.00 31 1016.0
20260509233006 78 61 1.0 5.0 0.00 0.00 0.00 29 1015.9
20260509231512 78 5 3.0 5.0 0.00 0.00 0.00 33 1016.1
20260509230016 77 264 2.0 7.0 0.00 0.00 0.00 33 1016.2
20260509224522 77 9 2.0 6.0 0.00 0.00 0.00 35 1016.5
20260509223028 76 246 2.0 7.0 0.00 0.00 0.00 36 1016.7
20260509221512 76 360 3.0 8.0 0.00 0.00 0.00 36 1017.0
20260509220017 76 317 2.0 6.0 0.00 0.00 0.00 38 1017.4
20260509214519 75 291 1.0 6.0 0.00 0.00 0.00 41 1017.7
20260509213024 74 311 2.0 6.0 0.00 0.00 0.00 42 1017.9
20260509211527 73 317 1.0 8.0 0.00 0.00 0.00 47 1018.0
20260509210012 72 257 1.0 5.0 0.00 0.00 0.00 48 1018.2
20260509204519 71 360 1.0 8.0 0.00 0.00 0.00 50 1018.4
20260509203024 71 9 2.0 8.0 0.00 0.00 0.00 48 1018.5
20260509201523 70 5 3.0 6.0 0.00 0.00 0.00 50 1018.7
20260509200010 70 282 2.0 6.0 0.00 0.00 0.00 51 1019.1
20260509194517 69 348 5.0 10.0 0.00 0.00 0.00 51 1019.3
20260509193024 68 352 4.0 9.0 0.00 0.00 0.00 55 1019.4